[[{"header":{"parameterUnit":"m.s-1","parameterCategory":2,"la1":30.2991,"la2":30.254,"lo1":-89.0895,"lo2":-89.0444,"dy":0.0017,"dx":0.0017,"nx":28,"ny":28,"refTime":"2024-12-25T03:00:00:Z","depth":"0","parameterNumber":2,"parameterNumberName":"U-component_of_CURRENTS"},"data":[0,0,0,0,0,0,0,0,0,0,0,0,0,0,0,0,0,0,0,0,0,0,0,0,0,0,0,0,0,0,0,0,0,0,0,0,0,0,0,0,0,0,0,0,0,0,0,0,0,0,0,0,0,0,0,0,0,0,-0.248,-0.248,0,-0.2495,-0.2495,-0.2495,-0.2472,-0.2472,-0.2471,-0.247,-0.2415,-0.2414,-0.2414,0,0,0,0,0,0,0,0,0,0,0,0,0,-0.2415,-0.2416,-0.248,-0.248,-0.2481,-0.2495,-0.2495,-0.2495,-0.2472,-0.2471,-0.2471,-0.247,-0.2416,-0.2415,-0.2413,0,0,0,0,0,0,0,0,0,0,0,0,0,-0.2436,-0.2417,-0.248,-0.2473,-0.2473,-0.2495,-0.2495,-0.2495,-0.2472,-0.2471,-0.2471,-0.247,-0.2416,-0.2415,-0.2413,-0.2421,0,0,-0.2409,-0.2408,0,0,0,0,0,0,0,0,-0.2435,-0.2438,-0.2473,-0.2473,-0.2473,-0.2483,-0.2452,-0.2468,-0.2473,-0.247,-0.247,-0.2469,-0.2434,-0.2431,-0.2433,-0.2419,-0.2416,-0.2409,-0.2408,-0.2407,-0.2407,0,0,0,0,0,0,0,-0.2433,-0.2437,-0.2483,-0.2474,-0.2474,-0.2464,-0.2466,-0.2455,-0.2453,-0.247,-0.2469,-0.2475,-0.2433,-0.2434,-0.2431,-0.2416,-0.2409,-0.2408,-0.2407,-0.2406,-0.2411,-0.2412,0,0,0,0,0,0,-0.2439,-0.2436,-0.2483,-0.2484,-0.2454,-0.2466,-0.2468,-0.2479,-0.2454,-0.2451,-0.2476,-0.2474,-0.2437,-0.2433,-0.2429,-0.2447,-0.2407,-0.2406,-0.2405,-0.241,-0.2412,-0.2413,0,0,0,0,0,0,-0.2437,-0.2443,-0.2482,-0.2462,-0.2466,-0.2469,-0.248,-0.2479,-0.2479,-0.246,-0.2455,-0.2477,-0.2436,-0.2431,-0.2427,-0.2444,-0.2405,-0.2404,-0.2409,-0.2411,-0.2412,-0.2476,0,0,0,0,0,0,-0.2436,-0.2442,-0.2447,-0.2463,-0.2468,-0.2503,-0.2481,-0.248,-0.2486,-0.2484,-0.246,-0.2454,-0.2435,-0.243,-0.2426,-0.2441,-0.2403,-0.2408,-0.241,-0.2412,-0.2473,-0.2479,-0.2485,0,0,0,0,0,-0.2433,-0.2449,-0.2447,-0.2452,-0.2476,-0.2504,-0.2506,-0.2502,-0.2487,-0.2496,-0.2479,-0.2454,-0.2438,-0.2429,-0.2425,-0.244,-0.2407,-0.2409,-0.2412,-0.247,-0.2478,-0.2485,0,0,0,0,0,0,-0.2422,-0.2449,-0.2447,-0.2469,-0.2487,-0.2501,-0.2508,-0.2506,-0.2501,-0.2492,-0.2467,-0.2461,-0.2463,-0.2445,-0.2436,-0.2448,-0.2419,-0.242,-0.2465,-0.2472,-0.2479,-0.2483,-0.2402,0,0,0,0,0,-0.2423,-0.2439,-0.2465,-0.2479,-0.2491,-0.2498,-0.2506,-0.2508,-0.251,-0.2507,-0.2491,-0.2476,-0.247,-0.2465,-0.2455,-0.2462,-0.2447,-0.247,-0.2476,-0.2482,-0.2482,-0.2481,-0.2487,-0.242,-0.242,-0.242,0,0,-0.242,-0.2438,-0.2445,-0.2478,-0.2487,-0.2516,-0.25,-0.252,-0.2539,-0.2501,-0.2511,-0.2494,-0.2477,-0.2486,-0.2486,-0.2472,-0.2495,-0.2484,-0.2489,-0.2487,-0.2484,-0.2491,-0.2496,-0.2422,-0.2421,-0.2421,0,0,-0.2432,-0.2442,-0.2463,-0.2486,-0.2513,-0.2525,-0.2533,-0.2551,-0.2554,-0.2568,-0.2545,-0.2542,-0.2531,-0.2528,-0.2524,-0.2559,-0.2526,-0.2553,-0.259,-0.259,-0.2595,-0.2599,-0.2596,-0.26,-0.2559,-0.2559,-0.2559,0,-0.2427,-0.2459,-0.2473,-0.2506,-0.2526,-0.2532,-0.2564,-0.2577,-0.2589,-0.2596,-0.2577,-0.2573,-0.2554,-0.2574,-0.2584,-0.2574,-0.2564,-0.2563,-0.2598,-0.2602,-0.2605,-0.2601,-0.2604,-0.2562,-0.2562,-0.2561,-0.2561,0,-0.2459,-0.2487,-0.2504,-0.2546,-0.2571,-0.2599,-0.2627,-0.2644,-0.2642,-0.2651,-0.2663,-0.2644,-0.2639,-0.2638,-0.2618,-0.2641,-0.2622,-0.2604,-0.2579,-0.2616,-0.2609,-0.2611,-0.2567,-0.2566,-0.2565,-0.2564,0,0,-0.2435,-0.2512,-0.2514,-0.2543,-0.2595,-0.2618,-0.2661,-0.2699,-0.2719,-0.2725,-0.2747,-0.2741,-0.2722,-0.2715,-0.2695,-0.2696,-0.2711,-0.2661,-0.266,-0.2659,-0.2708,-0.2688,-0.2688,-0.2697,-0.2698,-0.2698,-0.2695,0,-0.2451,-0.2515,-0.2553,-0.2609,-0.2642,-0.2676,-0.2716,-0.275,-0.2764,-0.2786,-0.278,-0.2784,-0.2756,-0.2747,-0.2748,-0.2716,-0.2719,-0.2714,-0.267,-0.2669,-0.2647,-0.269,-0.2643,-0.2636,-0.2697,-0.2697,-0.2698,0,-0.2462,-0.2506,-0.2565,-0.2642,-0.266,-0.2692,-0.2748,-0.2786,-0.2827,-0.2839,-0.2851,-0.2839,-0.2845,-0.2806,-0.2789,-0.2785,-0.2751,-0.2728,-0.2727,-0.2686,-0.2654,-0.2607,-0.2637,-0.2634,-0.2701,-0.27,-0.27,0,-0.2422,-0.2509,-0.2553,-0.258,-0.2669,-0.2695,-0.2734,-0.2788,-0.2824,-0.286,-0.2881,-0.2887,-0.2882,-0.2854,-0.2809,-0.2795,-0.2786,-0.2759,-0.2715,-0.2713,-0.2653,-0.2645,-0.2673,-0.2748,-0.2748,-0.2748,-0.2748,0,-0.2418,-0.2449,-0.2534,-0.2556,-0.2604,-0.2671,-0.2718,-0.2761,-0.2826,-0.2863,-0.2891,-0.2913,-0.289,-0.2883,-0.2835,-0.2789,-0.2806,-0.273,-0.2716,-0.2675,-0.2669,-0.2645,-0.2637,-0.2747,-0.2747,-0.2748,-0.2748,0,-0.2358,-0.2422,-0.247,-0.2558,-0.2585,-0.2607,-0.2703,-0.2736,-0.2809,-0.2857,-0.287,-0.293,-0.2918,-0.29,-0.2856,-0.2819,-0.274,-0.2752,-0.2708,-0.2689,-0.2635,-0.2632,-0.2592,-0.253,-0.2703,-0.2703,-0.2702,0,-0.2334,-0.2353,-0.2441,-0.2462,-0.2497,-0.2552,-0.2592,-0.2697,-0.274,-0.2858,-0.2873,-0.2909,-0.2917,-0.2881,-0.2826,-0.2766,-0.2716,-0.2679,-0.2643,-0.2639,-0.2625,-0.2595,-0.2543,-0.259,-0.2589,-0.2588,-0.2587,0,-0.2267,-0.2294,-0.2328,-0.2376,-0.2416,-0.2472,-0.2537,-0.2582,-0.2703,-0.2767,-0.284,-0.2867,-0.2877,-0.2824,-0.2771,-0.2708,-0.2634,-0.2655,-0.2661,-0.2553,-0.251,-0.2442,-0.2589,-0.2577,-0.2578,-0.2579,-0.258,-0.258,-0.2191,-0.2191,-0.2231,-0.2266,-0.2314,-0.2353,-0.2358,-0.246,-0.2528,-0.2608,-0.2726,-0.2773,-0.28,-0.273,-0.268,-0.2599,-0.2568,-0.2525,-0.2525,-0.2499,-0.243,-0.2562,-0.2528,-0.2529,-0.253,-0.253,-0.253,0,-0.2081,-0.2093,-0.212,-0.215,-0.2148,-0.2219,-0.2287,-0.2276,-0.2314,-0.2462,-0.2528,-0.2662,-0.2634,-0.2647,-0.2609,-0.2516,-0.2429,-0.2437,-0.239,-0.2344,-0.2474,-0.246,-0.2399,-0.2399,-0.2399,-0.2399,-0.2399,-0.2399,-0.2021,-0.1996,-0.2014,-0.1965,-0.1983,-0.1936,-0.1943,-0.1963,-0.2038,-0.2147,-0.2295,-0.2459,-0.2504,-0.2698,-0.2615,-0.2498,-0.2393,-0.232,-0.2299,-0.242,-0.2428,-0.2437,-0.2424,-0.2356,-0.2355,-0.2121,-0.2119,-0.2118]},{"header":{"parameterUnit":"m.s-1","parameterCategory":2,"la1":30.2991,"la2":30.254,"lo1":-89.0895,"lo2":-89.0444,"dy":0.0017,"dx":0.0017,"nx":28,"ny":28,"refTime":"2024-12-25T03:00:00:Z","depth":"0","parameterNumber":3,"parameterNumberName":"V-component_of_CURRENTS"},"data":[0,0,0,0,0,0,0,0,0,0,0,0,0,0,0,0,0,0,0,0,0,0,0,0,0,0,0,0,0,0,0,0,0,0,0,0,0,0,0,0,0,0,0,0,0,0,0,0,0,0,0,0,0,0,0,0,0,0,-0.0249,-0.0248,0,-0.0153,-0.0152,-0.0151,-0.0093,-0.0093,-0.0093,-0.0093,0.0009,0.0012,0.0014,0,0,0,0,0,0,0,0,0,0,0,0,0,-0.0317,-0.0316,-0.0249,-0.0248,-0.0247,-0.0154,-0.0152,-0.0151,-0.0093,-0.0093,-0.0093,-0.0093,0.0009,0.0012,0.0015,0,0,0,0,0,0,0,0,0,0,0,0,0,-0.026,-0.0316,-0.0249,-0.0208,-0.0203,-0.0154,-0.0152,-0.015,-0.0094,-0.0093,-0.0093,-0.0093,0.0008,0.0011,0.0015,0.0033,0,0,0.0027,0.0028,0,0,0,0,0,0,0,0,-0.0263,-0.0258,-0.0215,-0.0211,-0.0205,-0.0136,-0.0138,-0.0089,-0.0094,-0.0134,-0.0093,-0.0093,-0.0039,-0.0032,-0.0013,0.0038,0.0042,0.0027,0.0029,0.0031,0.0032,0,0,0,0,0,0,0,-0.0267,-0.0261,-0.021,-0.0214,-0.0208,-0.0171,-0.0164,-0.0128,-0.0089,-0.0131,-0.0126,-0.0117,-0.0037,-0.0017,-0.001,0.0044,0.0027,0.003,0.0033,0.0034,0.0137,0.0138,0,0,0,0,0,0,-0.0285,-0.0265,-0.0213,-0.0208,-0.0235,-0.0171,-0.0162,-0.0158,-0.0089,-0.0079,-0.0118,-0.0115,-0.0024,-0.0015,-0.0006,0.0029,0.0031,0.0035,0.0037,0.0137,0.0137,0.0138,0,0,0,0,0,0,-0.0287,-0.0281,-0.0217,-0.0234,-0.0224,-0.0171,-0.0166,-0.0156,-0.0137,-0.0079,-0.0069,-0.0109,-0.0023,-0.0012,0.003,0.0032,0.0036,0.004,0.0136,0.0137,0.0138,0.0092,0,0,0,0,0,0,-0.0289,-0.0283,-0.0287,-0.0236,-0.0224,-0.0194,-0.0166,-0.0154,-0.0132,-0.0127,-0.0068,-0.0058,-0.0022,0.0024,0.0033,0.0038,0.0043,0.0136,0.0137,0.0138,0.0093,0.0091,0.009,0,0,0,0,0,-0.0292,-0.0302,-0.0288,-0.0282,-0.0231,-0.0195,-0.0185,-0.0145,-0.0132,-0.0126,-0.0081,-0.006,0.0036,0.0027,0.0039,0.0044,0.0135,0.0136,0.0137,0.0094,0.0092,0.009,0,0,0,0,0,0,-0.0332,-0.0295,-0.0279,-0.0277,-0.0241,-0.0186,-0.0179,-0.0151,-0.011,-0.0107,-0.0053,-0.004,-0.0003,0.0028,0.0017,0.0077,0.0089,0.0092,0.0052,0.005,0.0048,0.003,0.0046,0,0,0,0,0,-0.0344,-0.0343,-0.0297,-0.0295,-0.0282,-0.0232,-0.0213,-0.0186,-0.0142,-0.0124,-0.008,-0.0033,0.001,0.0034,0.0074,0.0107,0.0142,0.0118,0.0116,0.0115,0.0108,0.017,0.0172,0.0141,0.0141,0.0141,0,0,-0.0359,-0.0339,-0.0338,-0.0304,-0.0275,-0.0259,-0.022,-0.0197,-0.0178,-0.012,-0.0085,-0.0041,0.0017,0.0056,0.0075,0.0082,0.0143,0.0116,0.0114,0.0109,0.0171,0.0174,0.0177,0.0142,0.0142,0.0142,0,0,-0.0392,-0.0371,-0.0382,-0.0356,-0.032,-0.0285,-0.0283,-0.0229,-0.0199,-0.016,-0.0112,-0.0064,-0.0003,0.0046,0.0076,0.0089,0.0128,0.0098,0.0078,0.0138,0.0141,0.0143,0.019,0.0197,0.01,0.01,0.01,0,-0.0413,-0.0417,-0.0378,-0.0378,-0.0362,-0.0302,-0.0304,-0.0262,-0.0199,-0.0174,-0.0158,-0.0051,-0.0006,0.0056,0.0059,0.0084,0.0118,0.0079,0.0134,0.0138,0.0142,0.0189,0.0198,0.0098,0.0099,0.0099,0.0099,0,-0.0449,-0.045,-0.0453,-0.0434,-0.041,-0.0401,-0.0342,-0.031,-0.0269,-0.0222,-0.0156,-0.0083,-0.0019,0.0005,0.0034,0.0086,0.0101,0.0121,0.0135,0.0142,0.0192,0.0201,0.0095,0.0096,0.0097,0.0097,0,0,-0.0502,-0.0486,-0.0486,-0.049,-0.044,-0.0427,-0.0389,-0.0337,-0.031,-0.024,-0.0197,-0.0113,-0.007,-0.0032,0.0023,0.0075,0.0131,0.0101,0.0105,0.0138,0.0253,0.0305,0.0321,0.0159,0.016,0.0161,0.0276,0,-0.0543,-0.0572,-0.0538,-0.0549,-0.0558,-0.0488,-0.0459,-0.0401,-0.0335,-0.0276,-0.0184,-0.0128,-0.0082,-0.0053,0.001,0.0103,0.0155,0.0097,0.0249,0.0253,0.0292,0.0334,0.0387,0.0497,0.0286,0.0287,0.0288,0,-0.0588,-0.0603,-0.0634,-0.0616,-0.061,-0.0599,-0.0539,-0.0503,-0.0397,-0.0345,-0.026,-0.0186,-0.0088,-0.0059,0.0108,0.0068,0.0148,0.0219,0.0226,0.0296,0.0324,0.0459,0.0524,0.0701,0.0304,0.0303,0.0302,0,-0.0659,-0.0664,-0.0696,-0.069,-0.0659,-0.0649,-0.062,-0.053,-0.0498,-0.0388,-0.0348,-0.0217,-0.015,-0.0025,0.013,0.0117,0.031,0.0316,0.0439,0.0443,0.053,0.054,0.0779,0.0421,0.0421,0.0421,0.042,0,-0.0719,-0.074,-0.0736,-0.0753,-0.0779,-0.0723,-0.0716,-0.0657,-0.0572,-0.0533,-0.0396,-0.0326,-0.0141,-0.0001,0.0127,0.0327,0.0317,0.0446,0.0485,0.0516,0.0523,0.0713,0.0764,0.0425,0.0424,0.0423,0.0423,0,-0.079,-0.0786,-0.0825,-0.0818,-0.0818,-0.0836,-0.0799,-0.0785,-0.0687,-0.0627,-0.0598,-0.0406,-0.0206,-0.0009,0.0209,0.0327,0.0612,0.057,0.059,0.0629,0.09,0.0944,0.1181,0.1246,0.0727,0.0729,0.0731,0,-0.0829,-0.086,-0.0891,-0.0924,-0.0925,-0.0938,-0.0944,-0.0862,-0.0833,-0.0669,-0.0644,-0.0434,-0.0263,0.01,0.0357,0.062,0.0719,0.0795,0.0783,0.0942,0.102,0.104,0.1078,0.088,0.0883,0.0885,0.0887,0,-0.0902,-0.0913,-0.0949,-0.1027,-0.1056,-0.1077,-0.1068,-0.1062,-0.0947,-0.0863,-0.0705,-0.0551,-0.0158,0.0197,0.055,0.0702,0.0924,0.0849,0.1027,0.1174,0.1202,0.1274,0.0763,0.0908,0.0906,0.0904,0.0903,0.0902,-0.095,-0.1002,-0.1057,-0.1124,-0.1167,-0.1197,-0.1213,-0.1167,-0.111,-0.095,-0.0779,-0.0501,0.0044,0.0578,0.0761,0.1188,0.1109,0.1303,0.1346,0.1354,0.142,0.0946,0.1124,0.1124,0.1123,0.1122,0.1122,0,-0.1009,-0.1068,-0.1148,-0.1222,-0.1288,-0.1279,-0.1282,-0.1266,-0.1201,-0.0987,-0.0795,-0.0173,0.0361,0.0848,0.1465,0.168,0.1691,0.1781,0.184,0.1853,0.1469,0.1481,0.1731,0.1731,0.173,0.173,0.173,0.173,-0.1042,-0.1139,-0.1186,-0.1312,-0.1361,-0.1417,-0.142,-0.1359,-0.1218,-0.0871,-0.0504,-0.0197,0.0543,0.1565,0.2129,0.2163,0.2307,0.23,0.2353,0.2118,0.2077,0.2037,0.2066,0.2434,0.2435,0.2728,0.2731,0.2733]}],[{"header":{"parameterUnit":"m.s-1","parameterCategory":2,"la1":30.2991,"la2":30.254,"lo1":-89.0895,"lo2":-89.0444,"dy":0.0017,"dx":0.0017,"nx":28,"ny":28,"refTime":"2024-12-25T03:00:00:Z","depth":"2","parameterNumber":2,"parameterNumberName":"U-component_of_CURRENTS"},"data":[0,0,0,0,0,0,0,0,0,0,0,0,0,0,0,0,0,0,0,0,0,0,0,0,0,0,0,0,0,0,0,0,0,0,0,0,0,0,0,0,0,0,0,0,0,0,0,0,0,0,0,0,0,0,0,0,0,0,-0.2345,-0.2346,0,-0.2359,-0.2359,-0.2359,-0.234,-0.234,-0.2339,-0.2339,-0.2288,-0.2287,-0.2287,0,0,0,0,0,0,0,0,0,0,0,0,0,-0.2286,-0.2287,-0.2345,-0.2346,-0.2346,-0.2359,-0.2359,-0.2359,-0.234,-0.234,-0.2339,-0.2339,-0.2289,-0.2288,-0.2286,0,0,0,0,0,0,0,0,0,0,0,0,0,-0.2305,-0.2287,-0.2345,-0.234,-0.234,-0.2359,-0.2359,-0.2359,-0.234,-0.234,-0.2339,-0.2338,-0.2289,-0.2288,-0.2286,-0.2291,0,0,-0.2282,-0.2281,0,0,0,0,0,0,0,0,-0.2304,-0.2306,-0.2341,-0.2341,-0.2341,-0.235,-0.232,-0.2334,-0.2341,-0.2337,-0.2339,-0.2338,-0.2305,-0.2302,-0.2304,-0.2288,-0.2286,-0.2282,-0.2281,-0.228,-0.228,0,0,0,0,0,0,0,-0.2302,-0.2306,-0.2348,-0.2341,-0.2341,-0.2332,-0.2334,-0.2322,-0.2321,-0.2338,-0.2337,-0.2343,-0.2304,-0.2305,-0.2302,-0.2285,-0.2282,-0.2281,-0.228,-0.2279,-0.2284,-0.2285,0,0,0,0,0,0,-0.2308,-0.2305,-0.2348,-0.2349,-0.2323,-0.2334,-0.2336,-0.2345,-0.2323,-0.232,-0.2344,-0.2342,-0.2308,-0.2304,-0.23,-0.232,-0.228,-0.2279,-0.2278,-0.2283,-0.2284,-0.2285,0,0,0,0,0,0,-0.2307,-0.2312,-0.2347,-0.2329,-0.2333,-0.2336,-0.2347,-0.2346,-0.2348,-0.2329,-0.2324,-0.2347,-0.2307,-0.2302,-0.2299,-0.2317,-0.2278,-0.2277,-0.2282,-0.2283,-0.2285,-0.235,0,0,0,0,0,0,-0.2305,-0.2311,-0.2316,-0.2329,-0.2334,-0.2367,-0.2348,-0.2347,-0.2354,-0.2352,-0.233,-0.2325,-0.2306,-0.2302,-0.2298,-0.2315,-0.2276,-0.2281,-0.2282,-0.2284,-0.2346,-0.2353,-0.2359,0,0,0,0,0,-0.2303,-0.2318,-0.2316,-0.2321,-0.2342,-0.2368,-0.237,-0.2367,-0.2355,-0.2364,-0.2349,-0.2325,-0.2311,-0.2302,-0.2297,-0.2313,-0.228,-0.2282,-0.2284,-0.2343,-0.2352,-0.2359,0,0,0,0,0,0,-0.2293,-0.2318,-0.2316,-0.2337,-0.2354,-0.2366,-0.2373,-0.2372,-0.2369,-0.2362,-0.2337,-0.2332,-0.2335,-0.2317,-0.2308,-0.2321,-0.2291,-0.2293,-0.2338,-0.2346,-0.2352,-0.2355,-0.2275,0,0,0,0,0,-0.2295,-0.231,-0.2333,-0.2347,-0.2358,-0.2365,-0.2373,-0.2376,-0.2378,-0.2376,-0.2361,-0.2347,-0.2342,-0.2338,-0.2327,-0.2335,-0.2319,-0.2343,-0.2349,-0.2354,-0.2355,-0.2353,-0.236,-0.2292,-0.2292,-0.2292,0,0,-0.2292,-0.2309,-0.2316,-0.2346,-0.2355,-0.2382,-0.2368,-0.2388,-0.2407,-0.237,-0.2382,-0.2366,-0.2348,-0.2358,-0.2358,-0.2345,-0.2368,-0.2357,-0.2362,-0.2359,-0.2356,-0.2363,-0.2369,-0.2294,-0.2294,-0.2293,0,0,-0.2305,-0.2314,-0.2334,-0.2356,-0.2381,-0.2392,-0.2401,-0.2419,-0.2423,-0.2437,-0.2416,-0.2415,-0.2403,-0.24,-0.2396,-0.2431,-0.2399,-0.2426,-0.2463,-0.2462,-0.2468,-0.2472,-0.247,-0.2474,-0.2432,-0.2432,-0.2432,0,-0.23,-0.2331,-0.2343,-0.2374,-0.2394,-0.2401,-0.2431,-0.2444,-0.2457,-0.2465,-0.2448,-0.2445,-0.2426,-0.2445,-0.2455,-0.2446,-0.2436,-0.2436,-0.2471,-0.2475,-0.2478,-0.2475,-0.2478,-0.2435,-0.2435,-0.2434,-0.2434,0,-0.2331,-0.2358,-0.2373,-0.2413,-0.2438,-0.2465,-0.2492,-0.2509,-0.251,-0.2518,-0.2533,-0.2514,-0.251,-0.251,-0.2491,-0.2513,-0.2496,-0.2477,-0.2452,-0.2489,-0.2483,-0.2485,-0.244,-0.2439,-0.2438,-0.2437,0,0,-0.2309,-0.2381,-0.2384,-0.2411,-0.2461,-0.2483,-0.2525,-0.2562,-0.2583,-0.259,-0.2613,-0.2608,-0.2592,-0.2585,-0.2566,-0.2566,-0.2584,-0.2534,-0.2532,-0.2533,-0.2582,-0.2559,-0.2559,-0.2571,-0.2571,-0.2572,-0.2571,0,-0.2324,-0.2384,-0.242,-0.2473,-0.2505,-0.2539,-0.2578,-0.2611,-0.2626,-0.2649,-0.2645,-0.2651,-0.2624,-0.2617,-0.2619,-0.2588,-0.2591,-0.2586,-0.2544,-0.2543,-0.2519,-0.2561,-0.235,-0.2331,-0.2573,-0.2573,-0.2574,0,-0.2334,-0.2375,-0.2432,-0.2505,-0.2522,-0.2554,-0.2609,-0.2646,-0.2688,-0.27,-0.2715,-0.2704,-0.2712,-0.2675,-0.266,-0.2656,-0.2624,-0.2602,-0.2601,-0.2556,-0.2524,-0.233,-0.2326,-0.2577,-0.2577,-0.2576,-0.2576,0,-0.2296,-0.2379,-0.2421,-0.2447,-0.2532,-0.2558,-0.2597,-0.265,-0.2685,-0.2723,-0.2745,-0.2753,-0.275,-0.2724,-0.2682,-0.2668,-0.2659,-0.2633,-0.2588,-0.2586,-0.2386,-0.2365,-0.2622,-0.2622,-0.2622,-0.2622,-0.2622,0,-0.2292,-0.2323,-0.2404,-0.2425,-0.2471,-0.2537,-0.2583,-0.2626,-0.269,-0.2726,-0.2756,-0.2777,-0.2759,-0.2752,-0.2706,-0.2661,-0.268,-0.2602,-0.2588,-0.2404,-0.2387,-0.2578,-0.2573,-0.2622,-0.2622,-0.2622,-0.2622,0,-0.2236,-0.2296,-0.2343,-0.2427,-0.2453,-0.2477,-0.257,-0.2602,-0.2675,-0.2722,-0.2736,-0.2795,-0.2785,-0.2769,-0.2728,-0.269,-0.2648,-0.2625,-0.2417,-0.2379,-0.2568,-0.2566,-0.2575,-0.2574,-0.2574,-0.2573,-0.2573,0,-0.2212,-0.2231,-0.2315,-0.2336,-0.237,-0.2425,-0.2463,-0.2566,-0.2606,-0.2722,-0.2736,-0.2773,-0.2776,-0.2741,-0.266,-0.2594,-0.2633,-0.2378,-0.2319,-0.258,-0.2565,-0.2564,-0.2563,-0.2074,-0.2069,-0.2066,-0.2063,0,-0.2148,-0.2175,-0.2207,-0.2253,-0.2292,-0.2345,-0.2408,-0.245,-0.2567,-0.2626,-0.2695,-0.2717,-0.2702,-0.255,-0.2487,-0.2409,-0.2374,-0.2305,-0.2612,-0.2138,-0.2112,-0.2097,-0.211,-0.203,-0.2033,-0.2036,-0.2037,-0.2039,-0.2075,-0.2074,-0.2112,-0.2146,-0.2192,-0.2228,-0.223,-0.2314,-0.2373,-0.2406,-0.2539,-0.2491,-0.2467,-0.2265,-0.2169,-0.2076,-0.2225,-0.2098,-0.2106,-0.2119,-0.2081,-0.2057,-0.1957,-0.196,-0.1962,-0.1964,-0.1966,0,-0.1962,-0.1979,-0.2004,-0.2032,-0.2022,-0.2098,-0.2159,-0.2113,-0.2124,-0.2189,-0.2216,-0.1996,-0.1936,-0.1912,-0.1739,-0.1731,-0.1673,-0.1642,-0.1551,-0.1585,-0.1615,-0.1548,-0.1284,-0.1282,-0.128,-0.1279,0,0,-0.1903,-0.1874,-0.189,-0.1836,-0.1859,-0.1794,-0.1798,-0.1753,-0.175,-0.1672,-0.165,-0.1798,-0.1859,-0.156,-0.1502,-0.1372,-0.1453,-0.1299,-0.1844,-0.1769,-0.1796,-0.1876,-0.1813,0,0,0,0,0]},{"header":{"parameterUnit":"m.s-1","parameterCategory":2,"la1":30.2991,"la2":30.254,"lo1":-89.0895,"lo2":-89.0444,"dy":0.0017,"dx":0.0017,"nx":28,"ny":28,"refTime":"2024-12-25T03:00:00:Z","depth":"2","parameterNumber":3,"parameterNumberName":"V-component_of_CURRENTS"},"data":[0,0,0,0,0,0,0,0,0,0,0,0,0,0,0,0,0,0,0,0,0,0,0,0,0,0,0,0,0,0,0,0,0,0,0,0,0,0,0,0,0,0,0,0,0,0,0,0,0,0,0,0,0,0,0,0,0,0,-0.0257,-0.0256,0,-0.0163,-0.0162,-0.0161,-0.0104,-0.0104,-0.0104,-0.0104,-0.0004,-0.0001,0.0001,0,0,0,0,0,0,0,0,0,0,0,0,0,-0.0321,-0.0321,-0.0257,-0.0256,-0.0254,-0.0163,-0.0162,-0.0161,-0.0104,-0.0104,-0.0104,-0.0104,-0.0004,-0.0001,0.0002,0,0,0,0,0,0,0,0,0,0,0,0,0,-0.0267,-0.0321,-0.0257,-0.0216,-0.0212,-0.0164,-0.0162,-0.016,-0.0104,-0.0104,-0.0104,-0.0104,-0.0005,-0.0002,0.0002,0.0019,0,0,0.0013,0.0015,0,0,0,0,0,0,0,0,-0.027,-0.0264,-0.0223,-0.0219,-0.0214,-0.0146,-0.0148,-0.01,-0.0104,-0.0144,-0.0104,-0.0103,-0.0051,-0.0044,-0.0026,0.0024,0.0028,0.0014,0.0016,0.0018,0.0019,0,0,0,0,0,0,0,-0.0274,-0.0267,-0.0219,-0.0222,-0.0216,-0.018,-0.0173,-0.0138,-0.01,-0.0141,-0.0136,-0.0128,-0.0049,-0.0029,-0.0023,0.003,0.0014,0.0017,0.0019,0.0021,0.0121,0.0122,0,0,0,0,0,0,-0.0291,-0.0271,-0.0222,-0.0216,-0.0243,-0.018,-0.0171,-0.0167,-0.01,-0.009,-0.0128,-0.0125,-0.0036,-0.0027,-0.0019,0.0015,0.0018,0.0021,0.0023,0.0121,0.0121,0.0122,0,0,0,0,0,0,-0.0293,-0.0288,-0.0225,-0.0242,-0.0232,-0.018,-0.0175,-0.0166,-0.0146,-0.0091,-0.008,-0.0119,-0.0035,-0.0024,0.0016,0.0019,0.0023,0.0026,0.012,0.0121,0.0122,0.0077,0,0,0,0,0,0,-0.0295,-0.0289,-0.0293,-0.0243,-0.0231,-0.0203,-0.0175,-0.0164,-0.0142,-0.0138,-0.008,-0.007,-0.0034,0.001,0.002,0.0024,0.0029,0.012,0.0121,0.0121,0.0078,0.0076,0.0075,0,0,0,0,0,-0.0298,-0.0307,-0.0294,-0.0288,-0.0239,-0.0204,-0.0194,-0.0155,-0.0142,-0.0136,-0.0092,-0.0072,0.0022,0.0014,0.0025,0.003,0.0119,0.012,0.0121,0.0079,0.0077,0.0075,0,0,0,0,0,0,-0.0336,-0.0301,-0.0286,-0.0284,-0.0249,-0.0195,-0.0188,-0.016,-0.012,-0.0118,-0.0065,-0.0052,-0.0016,0.0014,0.0003,0.0063,0.0074,0.0077,0.0038,0.0036,0.0034,0.0016,0.0032,0,0,0,0,0,-0.0348,-0.0347,-0.0303,-0.0301,-0.0288,-0.0239,-0.0221,-0.0195,-0.0152,-0.0135,-0.0091,-0.0045,-0.0003,0.0021,0.0059,0.0091,0.0125,0.0103,0.0101,0.0099,0.0093,0.0153,0.0155,0.0125,0.0125,0.0125,0,0,-0.0363,-0.0344,-0.0342,-0.031,-0.0281,-0.0267,-0.0228,-0.0206,-0.0187,-0.0131,-0.0096,-0.0053,0.0003,0.0041,0.006,0.0067,0.0126,0.01,0.0098,0.0093,0.0154,0.0157,0.0159,0.0126,0.0126,0.0126,0,0,-0.0395,-0.0375,-0.0386,-0.0361,-0.0326,-0.0292,-0.0289,-0.0237,-0.0208,-0.017,-0.0122,-0.0076,-0.0016,0.0032,0.0062,0.0074,0.0112,0.0083,0.0063,0.0121,0.0124,0.0127,0.0172,0.0179,0.0085,0.0085,0.0085,0,-0.0415,-0.042,-0.0382,-0.0382,-0.0367,-0.0308,-0.031,-0.0269,-0.0208,-0.0183,-0.0168,-0.0063,-0.0019,0.0041,0.0045,0.0069,0.0102,0.0064,0.0118,0.0122,0.0125,0.0171,0.018,0.0083,0.0083,0.0084,0.0084,0,-0.045,-0.0452,-0.0455,-0.0436,-0.0413,-0.0405,-0.0347,-0.0316,-0.0276,-0.0231,-0.0167,-0.0095,-0.0033,-0.0009,0.002,0.0071,0.0085,0.0105,0.0119,0.0126,0.0174,0.0183,0.008,0.0081,0.0082,0.0082,0,0,-0.0502,-0.0487,-0.0487,-0.0491,-0.0443,-0.043,-0.0393,-0.0343,-0.0317,-0.0248,-0.0207,-0.0125,-0.0082,-0.0045,0.0009,0.006,0.0114,0.0085,0.0089,0.0121,0.0233,0.0281,0.0296,0.0141,0.0143,0.0144,0.0255,0,-0.0542,-0.057,-0.0538,-0.0549,-0.0558,-0.049,-0.0462,-0.0405,-0.0342,-0.0285,-0.0194,-0.014,-0.0095,-0.0066,-0.0005,0.0086,0.0137,0.0081,0.0229,0.0233,0.0269,0.0309,0.0249,0.0346,0.0265,0.0266,0.0268,0,-0.0586,-0.0601,-0.0631,-0.0615,-0.061,-0.0599,-0.0541,-0.0506,-0.0403,-0.0353,-0.027,-0.0197,-0.0101,-0.0072,0.009,0.0051,0.013,0.02,0.0206,0.0272,0.03,0.0328,0.0367,0.0284,0.0283,0.0282,0.0281,0,-0.0655,-0.0661,-0.0693,-0.0687,-0.0657,-0.0648,-0.062,-0.0534,-0.0502,-0.0395,-0.0357,-0.0228,-0.0163,-0.004,0.0112,0.0099,0.0287,0.0293,0.0412,0.0416,0.0405,0.0406,0.0397,0.0397,0.0396,0.0396,0.0396,0,-0.0714,-0.0735,-0.0732,-0.0749,-0.0775,-0.0721,-0.0715,-0.0658,-0.0576,-0.0539,-0.0404,-0.0337,-0.0154,-0.0018,0.0108,0.0302,0.0293,0.0418,0.0456,0.0389,0.0387,0.0362,0.0357,0.04,0.0399,0.0399,0.0398,0,-0.0784,-0.078,-0.0819,-0.0813,-0.0813,-0.0831,-0.0797,-0.0784,-0.0689,-0.0632,-0.0603,-0.0416,-0.0222,-0.0028,0.0186,0.0301,0.0474,0.0537,0.0444,0.0469,0.0559,0.055,0.0682,0.0685,0.0687,0.0689,0.0691,0,-0.0822,-0.0853,-0.0884,-0.0917,-0.0918,-0.0932,-0.0939,-0.0859,-0.0833,-0.0675,-0.0651,-0.0446,-0.0282,0.0071,0.0303,0.0554,0.0548,0.0634,0.0609,0.0569,0.0592,0.0579,0.0567,0.0572,0.0572,0.0573,0.0573,0,-0.0894,-0.0905,-0.0941,-0.1017,-0.1047,-0.1068,-0.1061,-0.1057,-0.0946,-0.0865,-0.0714,-0.0566,-0.0203,0.008,0.0416,0.0549,0.0595,0.0654,0.0652,0.0512,0.0475,0.0494,0.0484,0.0577,0.0577,0.0576,0.0576,0.0576,-0.0941,-0.0992,-0.1047,-0.1113,-0.1157,-0.1187,-0.1203,-0.1158,-0.1105,-0.0954,-0.0796,-0.055,-0.0249,0.0227,0.0463,0.0675,0.0683,0.0713,0.0707,0.0702,0.0673,0.0643,0.077,0.077,0.0771,0.0771,0.0772,0,-0.0998,-0.1057,-0.1136,-0.121,-0.1273,-0.1267,-0.1272,-0.1249,-0.1186,-0.1008,-0.0831,-0.0498,-0.0149,0.0167,0.0507,0.0725,0.0685,0.0747,0.0644,0.064,0.0636,0.0599,0.0679,0.0679,0.068,0.068,0,0,-0.103,-0.1124,-0.117,-0.1293,-0.1344,-0.1394,-0.1398,-0.1328,-0.1208,-0.1025,-0.0835,-0.0559,-0.0161,0.0057,0.0335,0.0512,0.0509,0.0519,0.057,0.041,0.0403,0.0596,0.0534,0,0,0,0,0]}],[{"header":{"parameterUnit":"m.s-1","parameterCategory":2,"la1":30.2991,"la2":30.254,"lo1":-89.0895,"lo2":-89.0444,"dy":0.0017,"dx":0.0017,"nx":28,"ny":28,"refTime":"2024-12-25T03:00:00:Z","depth":"4","parameterNumber":2,"parameterNumberName":"U-component_of_CURRENTS"},"data":[0,0,0,0,0,0,0,0,0,0,0,0,0,0,0,0,0,0,0,0,0,0,0,0,0,0,0,0,0,0,0,0,0,0,0,0,0,0,0,0,0,0,0,0,0,0,0,0,0,0,0,0,0,0,0,0,0,0,-0.1509,-0.151,0,-0.1558,-0.1559,-0.1559,-0.1593,-0.1593,-0.1594,-0.1594,-0.1622,-0.1623,-0.1623,0,0,0,0,0,0,0,0,0,0,0,0,0,-0.1437,-0.1438,-0.1509,-0.151,-0.1511,-0.1558,-0.1559,-0.1559,-0.1593,-0.1593,-0.1594,-0.1594,-0.1622,-0.1623,-0.1623,0,0,0,0,0,0,0,0,0,0,0,0,0,-0.1474,-0.1438,-0.1509,-0.1535,-0.1538,-0.1558,-0.1559,-0.156,-0.1593,-0.1593,-0.1594,-0.1595,-0.1622,-0.1623,-0.1623,-0.1615,0,0,-0.1625,-0.1625,0,0,0,0,0,0,0,0,-0.1472,-0.1476,-0.153,-0.1533,-0.1536,-0.1572,-0.1544,-0.1578,-0.1593,-0.157,-0.1594,-0.1595,-0.1604,-0.1606,-0.1612,-0.1616,-0.1617,-0.1625,-0.1625,-0.1626,-0.1626,0,0,0,0,0,0,0,-0.1469,-0.1474,-0.1527,-0.1531,-0.1535,-0.1541,-0.1547,-0.155,-0.1581,-0.1572,-0.1575,-0.1583,-0.1606,-0.1611,-0.1613,-0.1618,-0.1625,-0.1626,-0.1626,-0.1626,-0.1691,-0.1693,0,0,0,0,0,0,-0.1466,-0.1472,-0.1526,-0.1529,-0.1507,-0.1542,-0.1548,-0.1558,-0.1582,-0.1587,-0.1582,-0.1584,-0.161,-0.1612,-0.1614,-0.1682,-0.1626,-0.1626,-0.1627,-0.169,-0.1692,-0.1693,0,0,0,0,0,0,-0.1465,-0.1471,-0.1524,-0.1503,-0.151,-0.1543,-0.1554,-0.1559,-0.1593,-0.159,-0.1595,-0.1614,-0.1611,-0.1613,-0.1647,-0.1681,-0.1626,-0.1627,-0.1688,-0.169,-0.1692,-0.1769,0,0,0,0,0,0,-0.1462,-0.147,-0.1488,-0.1503,-0.1511,-0.1558,-0.1553,-0.156,-0.1596,-0.16,-0.1618,-0.162,-0.1611,-0.1646,-0.1647,-0.1681,-0.1627,-0.1687,-0.1689,-0.1692,-0.1765,-0.1774,-0.1781,0,0,0,0,0,-0.146,-0.148,-0.1488,-0.1495,-0.1531,-0.1559,-0.1565,-0.1588,-0.1597,-0.1619,-0.1634,-0.1621,-0.1663,-0.1648,-0.1649,-0.1683,-0.1685,-0.1688,-0.1691,-0.1762,-0.1772,-0.1781,0,0,0,0,0,0,-0.1459,-0.1486,-0.1495,-0.1523,-0.155,-0.1566,-0.1591,-0.1604,-0.1634,-0.1644,-0.1639,-0.1642,-0.1681,-0.1672,-0.1655,-0.1709,-0.1672,-0.1675,-0.1725,-0.1735,-0.1743,-0.1737,-0.1628,0,0,0,0,0,-0.1466,-0.1489,-0.1513,-0.1539,-0.1555,-0.1577,-0.1597,-0.1614,-0.1636,-0.1651,-0.1665,-0.1678,-0.169,-0.1706,-0.1711,-0.1743,-0.1724,-0.1766,-0.1774,-0.1781,-0.1777,-0.1781,-0.1789,-0.1703,-0.1703,-0.1703,0,0,-0.1473,-0.1491,-0.1506,-0.1541,-0.1563,-0.1595,-0.1591,-0.1631,-0.1665,-0.1647,-0.1704,-0.1707,-0.1704,-0.174,-0.1757,-0.1742,-0.1798,-0.1785,-0.1791,-0.1783,-0.1785,-0.1793,-0.1801,-0.1706,-0.1705,-0.1705,0,0,-0.1491,-0.1517,-0.1541,-0.1568,-0.1609,-0.1625,-0.1644,-0.168,-0.1707,-0.1752,-0.1748,-0.1775,-0.18,-0.1806,-0.1809,-0.1864,-0.1837,-0.1872,-0.1915,-0.192,-0.1927,-0.1933,-0.1929,-0.1934,-0.1881,-0.1881,-0.1881,0,-0.1501,-0.1533,-0.1554,-0.1587,-0.1616,-0.1643,-0.168,-0.171,-0.1756,-0.178,-0.1782,-0.1827,-0.1828,-0.1864,-0.1885,-0.1883,-0.1876,-0.188,-0.193,-0.1936,-0.194,-0.1935,-0.1939,-0.1885,-0.1885,-0.1884,-0.1884,0,-0.1529,-0.1569,-0.159,-0.1639,-0.1673,-0.1712,-0.1752,-0.1796,-0.183,-0.1853,-0.1907,-0.1912,-0.1935,-0.1946,-0.1933,-0.1973,-0.1954,-0.1937,-0.1905,-0.1953,-0.1945,-0.1948,-0.1891,-0.1889,-0.1888,-0.1887,0,0,-0.1508,-0.1593,-0.1602,-0.1638,-0.1706,-0.1733,-0.18,-0.1856,-0.1897,-0.1944,-0.1991,-0.2021,-0.2024,-0.2026,-0.2021,-0.203,-0.206,-0.2003,-0.2002,-0.1998,-0.2069,-0.1946,-0.1937,-0.2055,-0.2055,-0.2056,-0.2053,0,-0.1526,-0.1591,-0.1634,-0.1706,-0.1743,-0.1799,-0.1855,-0.1913,-0.1957,-0.2009,-0.2031,-0.2069,-0.2056,-0.2071,-0.2081,-0.2061,-0.207,-0.2062,-0.2022,-0.2021,-0.1905,-0.1937,-0.2058,-0.2055,-0.2055,-0.2056,-0.2056,0,-0.1528,-0.1576,-0.1648,-0.1741,-0.1764,-0.1817,-0.1904,-0.1958,-0.2033,-0.2069,-0.2113,-0.2125,-0.2157,-0.2131,-0.2134,-0.2131,-0.2107,-0.2088,-0.2087,-0.1943,-0.1903,-0.1993,-0.2061,-0.206,-0.206,-0.206,-0.2059,0,-0.148,-0.1582,-0.1641,-0.1674,-0.1782,-0.1834,-0.1894,-0.1977,-0.2026,-0.2105,-0.214,-0.2179,-0.2199,-0.2185,-0.2156,-0.215,-0.2142,-0.2126,-0.1994,-0.1986,-0.2063,-0.2057,-0.2121,-0.2121,-0.2121,-0.2121,-0.2121,0,-0.146,-0.151,-0.163,-0.1659,-0.1734,-0.182,-0.19,-0.1963,-0.2053,-0.2096,-0.2164,-0.2184,-0.2213,-0.2211,-0.2175,-0.2089,-0.216,-0.1998,-0.1974,-0.2097,-0.2095,-0.2066,-0.2059,-0.2121,-0.2121,-0.2121,-0.2121,0,-0.1387,-0.1471,-0.1542,-0.1669,-0.1713,-0.1763,-0.1897,-0.1939,-0.2043,-0.2098,-0.2125,-0.2199,-0.2189,-0.2196,-0.2171,-0.2097,-0.2037,-0.1989,-0.2125,-0.211,-0.1875,-0.1873,-0.1838,-0.1833,-0.183,-0.1827,-0.1824,0,-0.1353,-0.1384,-0.1524,-0.1565,-0.1628,-0.1723,-0.1779,-0.1911,-0.195,-0.2078,-0.2079,-0.2129,-0.2152,-0.2023,-0.2046,-0.1979,-0.1949,-0.1915,-0.1887,-0.1864,-0.1846,-0.1849,-0.1852,-0.1818,-0.1817,-0.1816,-0.1815,0,-0.1273,-0.1336,-0.1391,-0.1474,-0.1548,-0.1621,-0.1711,-0.1732,-0.1865,-0.1984,-0.1977,-0.1967,-0.1956,-0.1927,-0.1893,-0.1842,-0.1935,-0.1876,-0.1883,-0.1856,-0.1839,-0.1826,-0.1833,-0.1802,-0.1804,-0.1805,-0.1806,0,-0.1208,-0.1221,-0.1297,-0.1357,-0.1442,-0.1473,-0.1552,-0.1599,-0.1662,-0.1809,-0.1799,-0.1854,-0.1934,-0.1855,-0.182,-0.1767,-0.1731,-0.1669,-0.1686,-0.1701,-0.1654,-0.1614,-0.1482,0,0,0,0,0,-0.1127,-0.1124,-0.1171,-0.1226,-0.1304,-0.135,-0.1476,-0.1557,-0.1694,-0.1642,-0.172,-0.1701,-0.1665,-0.1697,-0.1606,-0.1741,-0.1729,-0.1628,-0.1665,-0.173,-0.1745,-0.1702,0,0,0,0,0,0,-0.1072,-0.1103,-0.1119,-0.1094,-0.1104,-0.1172,-0.1245,-0.135,-0.1339,-0.1485,-0.147,-0.1585,-0.1567,-0.1672,-0.1561,-0.1569,-0.1555,-0.1676,-0.1671,-0.1722,-0.1735,-0.1747,-0.1708,0,0,0,0,0]},{"header":{"parameterUnit":"m.s-1","parameterCategory":2,"la1":30.2991,"la2":30.254,"lo1":-89.0895,"lo2":-89.0444,"dy":0.0017,"dx":0.0017,"nx":28,"ny":28,"refTime":"2024-12-25T03:00:00:Z","depth":"4","parameterNumber":3,"parameterNumberName":"V-component_of_CURRENTS"},"data":[0,0,0,0,0,0,0,0,0,0,0,0,0,0,0,0,0,0,0,0,0,0,0,0,0,0,0,0,0,0,0,0,0,0,0,0,0,0,0,0,0,0,0,0,0,0,0,0,0,0,0,0,0,0,0,0,0,0,-0.0207,-0.0206,0,-0.0146,-0.0145,-0.0144,-0.0106,-0.0106,-0.0105,-0.0105,-0.003,-0.0028,-0.0026,0,0,0,0,0,0,0,0,0,0,0,0,0,-0.0241,-0.0241,-0.0207,-0.0206,-0.0206,-0.0146,-0.0145,-0.0144,-0.0106,-0.0106,-0.0105,-0.0105,-0.003,-0.0028,-0.0026,0,0,0,0,0,0,0,0,0,0,0,0,0,-0.0207,-0.0241,-0.0207,-0.018,-0.0177,-0.0146,-0.0145,-0.0144,-0.0106,-0.0106,-0.0105,-0.0105,-0.0031,-0.0028,-0.0026,-0.0012,0,0,-0.0017,-0.0016,0,0,0,0,0,0,0,0,-0.0209,-0.0206,-0.0185,-0.0182,-0.0179,-0.0134,-0.0129,-0.0099,-0.0106,-0.0132,-0.0105,-0.0105,-0.0064,-0.0059,-0.0046,-0.0009,-0.0005,-0.0017,-0.0015,-0.0014,-0.0013,0,0,0,0,0,0,0,-0.0211,-0.0208,-0.0182,-0.0184,-0.018,-0.0154,-0.0149,-0.0123,-0.0099,-0.013,-0.0127,-0.0122,-0.0062,-0.0049,-0.0044,-0.0004,-0.0017,-0.0014,-0.0013,-0.0011,0.0066,0.0067,0,0,0,0,0,0,-0.0224,-0.021,-0.0184,-0.018,-0.0195,-0.0154,-0.0149,-0.0148,-0.0099,-0.0092,-0.0122,-0.012,-0.0054,-0.0048,-0.0041,-0.0016,-0.0014,-0.0011,-0.001,0.0066,0.0066,0.0067,0,0,0,0,0,0,-0.0225,-0.0222,-0.0186,-0.0194,-0.0188,-0.0154,-0.0153,-0.0147,-0.0135,-0.0094,-0.0086,-0.0118,-0.0054,-0.0045,-0.0015,-0.0013,-0.001,-0.0007,0.0066,0.0066,0.0067,0.0031,0,0,0,0,0,0,-0.0226,-0.0223,-0.0229,-0.0195,-0.0188,-0.0174,-0.0153,-0.0146,-0.0133,-0.013,-0.0088,-0.008,-0.0053,-0.002,-0.0013,-0.0009,-0.0005,0.0065,0.0066,0.0066,0.0031,0.003,0.0029,0,0,0,0,0,-0.0228,-0.0237,-0.023,-0.0227,-0.0197,-0.0174,-0.0168,-0.0142,-0.0133,-0.0131,-0.0097,-0.0082,-0.001,-0.0017,-0.0009,-0.0005,0.0065,0.0066,0.0066,0.0032,0.003,0.0029,0,0,0,0,0,0,-0.0253,-0.0233,-0.0224,-0.0227,-0.0205,-0.0168,-0.0165,-0.0147,-0.0119,-0.0117,-0.0077,-0.0067,-0.004,-0.0017,-0.0025,0.0021,0.003,0.0032,0.0001,-0.0001,-0.0002,-0.0019,-0.0003,0,0,0,0,0,-0.0263,-0.0266,-0.0238,-0.0241,-0.0233,-0.0201,-0.019,-0.0172,-0.0142,-0.013,-0.0098,-0.0063,-0.003,-0.0012,0.0018,0.0042,0.0069,0.0052,0.005,0.0049,0.0042,0.0091,0.0093,0.007,0.007,0.007,0,0,-0.0273,-0.0263,-0.0265,-0.0247,-0.0229,-0.0222,-0.0194,-0.0182,-0.017,-0.0126,-0.0103,-0.0069,-0.0025,0.0004,0.0018,0.0024,0.007,0.005,0.0048,0.0042,0.0092,0.0095,0.0097,0.007,0.007,0.007,0,0,-0.0297,-0.0288,-0.0299,-0.0285,-0.0264,-0.0242,-0.0242,-0.0207,-0.0187,-0.0161,-0.0124,-0.0088,-0.0043,-0.0005,0.0019,0.0028,0.0058,0.0036,0.0018,0.0067,0.0069,0.0071,0.0105,0.011,0.0038,0.0038,0.0038,0,-0.0312,-0.0321,-0.0298,-0.0301,-0.0294,-0.0255,-0.026,-0.0232,-0.019,-0.0173,-0.0161,-0.0081,-0.0046,0.0001,0.0004,0.0025,0.005,0.0019,0.0064,0.0067,0.007,0.0104,0.011,0.0036,0.0037,0.0037,0.0037,0,-0.0339,-0.0346,-0.0351,-0.0344,-0.0331,-0.0329,-0.0291,-0.0271,-0.0244,-0.0212,-0.0165,-0.0108,-0.006,-0.004,-0.0016,0.0024,0.0035,0.0053,0.0064,0.007,0.0105,0.0113,0.0034,0.0035,0.0035,0.0036,0,0,-0.0371,-0.0372,-0.0375,-0.0384,-0.0356,-0.0351,-0.0328,-0.0297,-0.0282,-0.023,-0.0203,-0.0137,-0.0103,-0.0074,-0.0029,0.0013,0.0056,0.0034,0.0038,0.006,0.0152,0.0141,0.0148,0.0082,0.0083,0.0084,0.0167,0,-0.0401,-0.0431,-0.0413,-0.0431,-0.0443,-0.04,-0.0385,-0.0349,-0.0305,-0.0267,-0.0194,-0.0155,-0.0115,-0.0093,-0.0042,0.0034,0.0074,0.0031,0.0149,0.0152,0.0137,0.0156,0.0088,0.0172,0.0174,0.0175,0.0176,0,-0.0432,-0.045,-0.0483,-0.0486,-0.0485,-0.0486,-0.0456,-0.0435,-0.0364,-0.0328,-0.0264,-0.0206,-0.0129,-0.0103,0.0031,0.0001,0.0065,0.0123,0.0128,0.0134,0.0156,0.0169,0.019,0.0189,0.0188,0.0187,0.0186,0,-0.0475,-0.0495,-0.0529,-0.0529,-0.0523,-0.0526,-0.0516,-0.046,-0.0443,-0.0366,-0.0341,-0.0236,-0.0184,-0.0082,0.0041,0.0036,0.0182,0.0196,0.0248,0.0248,0.0247,0.0244,0.0279,0.0278,0.0278,0.0278,0.0278,0,-0.0511,-0.0537,-0.0559,-0.0576,-0.0613,-0.0584,-0.0595,-0.0559,-0.0509,-0.0487,-0.0382,-0.0336,-0.0178,-0.0071,0.0034,0.0166,0.0184,0.0244,0.0271,0.023,0.0224,0.0252,0.0248,0.0281,0.028,0.028,0.0279,0,-0.0547,-0.0561,-0.0605,-0.0626,-0.0638,-0.0663,-0.0665,-0.0664,-0.0604,-0.0568,-0.0548,-0.0406,-0.0259,-0.0101,0.0075,0.0152,0.028,0.0318,0.0255,0.0277,0.0312,0.0305,0.0383,0.0384,0.0384,0.0384,0.0385,0,-0.0566,-0.0596,-0.0654,-0.0693,-0.0708,-0.0742,-0.0763,-0.0722,-0.071,-0.0609,-0.0592,-0.0445,-0.0337,-0.0089,0.0071,0.0279,0.0301,0.0357,0.0338,0.0306,0.0325,0.0317,0.031,0.0385,0.0385,0.0385,0.0385,0,-0.0601,-0.0629,-0.0668,-0.0753,-0.0799,-0.0838,-0.0856,-0.0853,-0.0787,-0.0742,-0.0616,-0.0467,-0.0298,-0.0095,0.007,0.0214,0.0318,0.036,0.036,0.0344,0.0309,0.0326,0.0318,0.0386,0.0386,0.0386,0.0386,0,-0.0625,-0.0668,-0.073,-0.0797,-0.0867,-0.0905,-0.0909,-0.0877,-0.085,-0.0724,-0.0689,-0.0483,-0.0359,-0.0129,0.0022,0.017,0.02,0.0228,0.0235,0.0236,0.0168,0.0102,0.0139,0,0,0,0,0,-0.0641,-0.0692,-0.0768,-0.0839,-0.0909,-0.0941,-0.0956,-0.094,-0.0881,-0.0803,-0.0737,-0.0573,-0.0313,-0.0193,-0.0047,0.0012,0.021,0.0183,0.0241,0.0393,0.0391,0.0336,0,0,0,0,0,0,-0.0653,-0.0727,-0.0769,-0.0858,-0.0911,-0.0973,-0.0984,-0.0945,-0.0884,-0.0804,-0.0662,-0.0562,-0.0309,-0.0398,-0.0052,-0.0004,0.0045,0.0315,0.0318,0.0393,0.0392,0.0391,0.0334,0,0,0,0,0]}]]